Wind_Speed
12 11 9 10 12 13 14 14 14 14 11 8 7 8 8 10 12 11 11 11 10 8 7 8 6 5 5 7 10 12 14 13 8 8 8 6 6 8 9 10 9 9 9 8 6 6 6 7 8 8 9 10 11 13 14 14 13 13 13 14 13 12 11 10 10 9 8 6 6 5 6 7 9 10 10 11 12 13 14 14 15 17 17 17 18 17
13 12 11 12 14 15 15 14 13 13 11 9 8 9 10 11 11 12 13 13 12 8 6 8 7 6 6 8 11 12 12 10 7 8 9 8 8 8 9 10 11 11 10 10 8 7 7 7 8 9 10 10 12 14 16 16 16 15 16 15 14 13 12 11 12 11 9 8 7 6 6 7 9 9 9 10 10 12 14 14 15 16 17 18 18 18
14 13 12 12 13 13 13 13 13 14 13 10 9 10 11 12 12 13 14 13 12 7 5 9 9 7 6 8 11 12 12 9 8 10 11 11 10 9 10 11 11 11 11 10 10 8 7 7 8 10 11 11 12 14 16 17 18 18 17 15 14 14 14 13 13 12 11 10 8 8 8 8 9 10 9 9 9 10 12 14 15 16 16 17 18 18
15 14 12 12 12 12 13 14 14 15 14 11 11 13 13 13 12 12 12 11 10 7 7 11 10 7 6 8 12 13 13 11 10 12 13 13 13 11 11 12 11 12 11 11 10 9 8 8 9 11 12 12 11 12 15 16 18 18 17 16 15 15 15 14 13 13 13 11 11 10 9 9 10 12 12 11 11 10 11 13 15 17 17 16 17 18
16 14 13 13 12 13 13 13 14 14 13 12 13 14 13 13 12 11 11 11 9 8 11 14 11 7 7 10 13 13 13 13 13 12 13 15 15 13 12 12 12 12 12 12 12 11 10 10 12 12 13 13 11 11 14 16 16 17 17 17 16 15 15 15 14 14 14 13 13 12 11 11 12 12 14 15 15 14 13 14 15 17 17 16 17 18
15 14 13 12 11 11 11 12 13 12 13 14 14 14 14 14 13 11 12 11 8 8 12 13 11 9 9 13 15 14 13 14 15 14 13 14 14 13 12 11 12 13 14 14 14 13 13 13 14 14 14 14 12 12 14 13 13 14 16 18 18 17 17 16 15 15 14 14 14 15 14 13 12 13 13 14 15 17 18 18 18 18 18 17 17 17
13 12 12 12 11 10 10 11 13 13 14 15 15 14 15 14 13 12 11 9 7 8 11 11 12 10 10 14 15 13 13 14 16 17 14 12 12 12 12 12 13 14 15 15 15 15 15 15 16 17 16 15 14 13 13 12 11 13 17 21 22 19 17 16 16 15 15 15 15 17 16 15 14 14 14 13 14 16 18 20 20 19 19 18 18 18
11 10 11 11 10 9 9 12 14 15 15 17 16 15 14 11 11 11 10 6 7 10 11 11 12 10 12 14 14 13 14 15 16 17 15 14 13 13 13 14 15 15 15 15 15 15 14 15 17 18 18 16 15 14 14 13 14 16 20 22 22 20 18 17 17 17 17 17 17 18 18 17 16 14 14 13 13 14 15 17 19 20 19 19 19 19
9 9 10 11 9 8 10 13 14 15 16 17 16 14 11 8 8 10 9 5 7 9 10 10 11 12 12 12 14 15 14 14 15 16 15 14 15 15 16 16 16 16 15 15 15 14 13 12 15 18 18 17 16 15 15 16 17 19 21 21 20 20 19 18 17 17 18 19 19 19 19 19 18 16 14 14 14 14 14 15 17 19 19 19 20 20
8 9 8 8 8 9 12 13 13 15 16 16 14 12 9 7 8 10 7 6 8 7 6 8 12 14 12 13 17 17 15 14 15 15 15 14 15 16 17 18 17 17 16 15 14 14 13 11 13 16 18 18 17 16 16 17 18 20 22 21 20 21 20 19 19 19 19 20 20 20 20 20 20 18 16 15 15 15 15 15 16 18 19 19 19 20
9 8 5 5 8 12 13 11 10 13 16 15 12 11 10 8 9 9 7 6 8 5 5 9 12 14 14 15 17 17 15 15 15 16 16 15 15 16 16 16 16 17 16 15 14 13 13 12 14 16 18 19 18 18 18 18 18 20 21 21 21 21 20 20 21 22 21 20 20 21 21 22 22 21 19 18 18 17 17 18 18 19 20 20 20 20
10 7 4 5 7 9 10 10 10 12 14 14 14 13 12 11 11 9 8 7 7 6 7 10 12 14 15 16 17 17 18 18 19 18 18 16 16 16 16 15 14 14 15 15 15 14 13 13 15 17 19 20 19 19 20 19 18 19 20 20 20 20 18 19 21 23 23 21 21 22 23 24 23 23 23 21 20 20 19 20 21 21 22 22 21 21
9 8 6 6 6 6 8 9 9 9 10 12 13 13 12 13 13 12 9 8 6 6 8 9 11 13 15 16 17 18 19 20 20 19 17 16 16 16 16 14 12 11 12 13 14 15 15 16 16 18 19 20 20 19 20 20 19 18 19 18 18 17 18 19 21 23 23 22 22 24 26 26 24 25 26 24 23 22 21 21 21 22 23 23 23 22
12 11 10 9 7 7 8 8 8 6 6 7 7 8 9 9 11 11 8 6 6 8 8 9 12 13 15 17 18 17 19 20 20 20 18 17 17 17 16 15 12 10 10 11 12 14 15 17 17 18 19 20 20 19 19 19 18 18 17 16 16 17 19 20 22 23 24 24 24 25 27 27 27 27 27 26 24 23 23 22 21 22 24 24 24 25
14 13 12 10 6 5 8 9 10 10 9 9 7 7 7 6 6 7 7 7 7 9 9 9 12 14 16 17 16 17 20 21 20 20 20 18 17 16 16 16 14 12 11 12 13 14 15 16 17 18 19 19 18 18 18 17 17 16 16 16 16 17 19 20 22 23 23 24 25 26 27 28 30 31 30 28 28 26 25 23 22 22 24 25 26 26
16 14 13 11 6 6 10 12 12 12 12 12 9 5 5 5 5 6 7 9 9 9 10 10 12 15 17 17 17 18 21 21 21 20 20 19 18 16 16 16 15 14 14 15 15 15 16 17 17 17 18 19 19 18 17 16 16 16 17 17 18 19 20 20 21 22 23 24 25 26 28 28 30 32 32 31 30 29 28 26 24 23 24 26 27 27
17 15 13 12 9 10 13 13 11 10 11 11 7 5 7 8 7 8 8 9 9 10 11 12 14 16 17 16 17 19 20 21 21 21 20 19 17 16 15 14 14 14 15 16 16 17 17 17 17 17 18 19 19 18 17 17 17 17 19 20 20 20 20 20 20 20 22 23 24 26 28 28 29 31 33 33 32 32 31 29 26 25 25 26 27 27
17 15 14 13 12 12 13 12 10 9 10 10 6 6 11 10 8 9 9 9 11 12 13 13 14 15 17 17 17 18 20 21 22 21 18 16 16 16 15 14 13 14 14 15 17 17 17 17 17 16 16 16 17 17 16 17 17 18 19 19 19 19 19 19 19 19 20 22 23 24 26 26 27 29 31 33 33 33 34 32 29 28 27 27 28 28
16 16 15 14 12 12 13 11 9 8 8 9 8 8 10 10 9 11 11 12 13 13 14 14 13 15 17 18 17 18 19 19 20 19 15 14 17 18 17 15 14 13 14 15 16 17 17 17 16 15 14 14 15 15 15 16 17 18 18 18 18 18 18 19 18 19 20 20 21 22 23 24 25 27 28 31 33 33 33 33 31 29 28 28 28 28
17 17 17 16 13 12 13 13 10 8 8 7 8 9 10 12 13 13 13 12 12 12 14 14 13 15 16 17 17 17 18 18 18 17 15 16 18 18 17 16 14 14 14 15 16 16 16 16 15 14 14 14 14 14 15 16 17 17 18 19 19 18 17 17 18 18 19 19 20 20 21 22 23 24 26 29 33 32 32 33 32 30 29 29 28 28
17 18 18 17 15 12 12 14 15 14 13 11 10 10 11 13 14 14 13 12 13 13 14 14 13 14 15 16 18 17 16 16 16 17 17 18 18 17 17 16 15 15 16 16 16 16 15 14 14 14 14 13 14 14 15 16 17 17 17 17 16 15 14 15 17 17 18 18 18 18 20 21 22 22 24 27 31 34 33 32 31 30 30 29 29 28
17 17 18 16 15 15 13 13 16 17 15 14 13 11 9 11 13 13 12 12 14 13 14 15 15 15 15 17 19 18 16 16 15 16 18 18 18 17 17 16 15 15 15 16 16 16 14 14 14 13 13 12 13 14 14 15 16 16 14 13 12 12 13 15 16 17 17 17 18 18 20 22 22 22 23 24 28 33 34 31 30 30 30 29 29 28
18 19 21 17 15 17 16 14 15 16 15 13 13 12 10 9 12 14 12 12 13 13 15 17 17 17 18 19 20 18 17 15 14 16 18 17 18 18 17 16 15 15 15 16 16 16 15 14 13 13 11 11 12 12 13 13 13 13 13 12 11 12 14 15 15 16 16 17 18 19 21 23 23 22 22 24 27 30 32 31 31 30 30 29 29 28
18 19 22 21 17 17 19 17 15 15 15 14 14 15 14 12 13 15 16 16 17 16 18 20 19 20 21 21 21 19 17 15 15 17 18 18 19 19 17 15 15 15 16 16 16 15 14 13 13 12 10 10 11 11 11 11 11 11 11 11 12 13 15 15 15 14 15 16 18 20 20 21 22 22 22 24 25 27 31 33 32 30 29 29 29 29
18 16 19 23 20 17 17 19 18 15 16 17 16 16 16 16 17 17 18 19 19 20 21 22 22 22 23 22 21 20 18 16 16 17 18 19 20 18 16 15 14 15 17 17 16 15 13 12 11 10 10 10 11 10 10 9 9 9 9 10 11 12 14 15 14 13 14 15 16 18 17 18 19 20 21 23 23 24 29 33 33 30 29 29 30 30
20 17 17 21 22 20 17 17 17 16 18 19 19 19 18 19 19 20 21 20 20 21 23 24 24 24 24 23 21 19 18 17 16 17 19 20 19 17 16 15 15 16 18 17 16 15 12 11 9 9 9 10 11 11 10 10 10 10 10 11 12 12 13 14 14 13 13 12 14 15 14 14 15 15 19 28 31 26 27 31 32 31 29 28 29 30
22 22 21 21 22 24 22 19 17 18 18 18 20 21 22 23 23 23 23 23 24 25 26 28 29 27 26 25 23 21 20 19 17 18 19 19 17 16 16 15 16 17 18 17 17 15 12 11 9 8 8 9 11 11 11 11 11 11 11 11 12 12 13 13 14 13 12 10 11 12 11 11 10 12 18 30 37 33 30 31 32 31 30 29 28 28
23 24 24 23 23 24 25 24 22 21 20 20 20 21 22 25 26 26 26 25 26 27 28 30 32 31 29 28 25 24 22 20 19 19 19 17 17 18 17 16 16 17 17 17 17 15 13 11 9 8 8 9 10 11 10 10 11 11 11 11 12 12 12 13 13 13 12 9 8 10 9 9 9 12 17 25 32 33 32 32 32 31 31 30 28 27
28 27 27 27 26 26 25 26 26 25 24 24 23 23 23 24 26 27 28 29 30 30 30 31 33 33 30 26 24 24 23 21 20 20 18 17 20 20 17 16 17 17 18 18 17 15 13 11 10 9 10 11 11 10 10 10 10 11 11 11 11 11 12 12 13 11 10 8 6 8 8 8 9 10 14 19 21 24 28 30 31 32 32 30 27 25
32 31 31 30 30 30 29 28 28 29 28 27 27 27 26 25 26 27 28 31 33 34 34 34 35 34 29 23 21 22 22 21 22 22 20 19 20 19 16 16 17 17 17 17 17 15 13 11 11 10 11 12 11 10 9 9 9 10 10 10 10 10 11 12 12 10 9 7 5 6 7 8 9 9 12 15 19 22 25 28 30 32 31 29 26 25
35 35 35 33 32 34 33 32 31 32 32 31 30 29 29 29 29 29 30 31 33 35 35 35 35 35 31 26 24 23 23 22 23 23 21 18 18 17 16 16 17 16 16 16 16 15 14 12 11 11 11 11 11 11 10 10 10 10 10 10 10 10 10 10 10 9 8 6 5 4 5 6 8 8 10 14 19 23 26 28 28 28 28 26 25 25
38 38 38 37 36 36 37 36 35 35 35 35 33 32 32 31 31 31 32 32 33 32 32 33 34 33 31 29 27 25 24 23 23 23 19 15 16 16 16 17 17 15 15 16 15 15 13 12 11 11 11 10 10 10 10 10 10 10 10 10 9 9 9 9 9 9 8 7 6 4 2 5 7 8 10 13 18 22 24 26 26 26 26 26 26 27
41 40 40 40 39 37 38 39 38 38 38 38 35 32 31 31 31 31 32 33 33 31 30 30 29 29 29 30 29 28 25 24 23 22 18 14 15 16 16 17 17 15 16 16 15 14 13 12 11 10 10 10 10 9 9 9 9 9 9 9 9 9 8 8 9 9 8 8 6 5 1 3 6 7 9 11 13 15 17 19 22 25 27 28 28 28
45 43 42 42 41 39 38 38 38 38 39 37 33 30 29 28 28 29 31 32 33 32 30 29 29 29 30 32 31 29 26 24 23 22 18 15 15 16 17 18 17 16 16 16 14 14 13 11 11 10 9 10 10 9 9 8 8 8 8 9 9 9 8 8 9 9 9 8 7 5 3 1 3 5 8 10 10 11 11 13 16 20 24 28 30 30
45 45 44 43 43 41 40 39 38 38 37 35 33 33 31 28 27 27 28 29 30 31 31 31 32 32 31 30 30 28 26 24 23 22 20 18 17 17 18 18 17 15 15 14 13 13 12 10 11 11 10 10 10 10 9 8 8 8 8 8 9 9 9 8 9 9 10 9 8 6 5 4 3 2 5 8 9 10 11 12 13 15 17 22 26 26
45 46 46 45 45 44 43 42 41 40 37 35 37 38 35 32 31 29 27 25 26 27 28 29 31 32 31 29 28 27 25 24 23 22 22 21 19 19 19 18 17 15 13 12 13 12 11 10 11 11 11 11 10 10 9 8 8 8 7 8 8 8 9 9 9 9 10 10 9 8 7 6 5 4 3 4 7 9 11 12 14 14 14 16 19 21
44 47 48 48 47 46 45 44 44 43 40 39 40 40 39 37 35 34 31 28 25 24 26 27 28 29 31 30 27 25 24 23 23 23 23 23 20 18 18 18 16 14 13 12 13 13 12 11 11 11 12 12 11 11 10 9 8 8 8 8 8 8 8 9 9 9 10 10 10 9 8 7 6 6 5 4 4 8 11 12 13 13 13 14 16 18
41 44 47 49 49 48 47 46 46 46 45 42 41 42 42 40 39 39 37 35 32 28 27 26 25 26 30 31 28 24 23 23 22 22 24 23 19 17 17 17 15 14 13 13 13 14 13 12 12 12 12 13 12 11 11 10 9 8 8 8 8 8 8 8 8 9 9 10 10 9 9 8 7 6 6 6 4 4 9 12 13 13 13 13 14 16
39 41 44 49 52 51 50 50 50 50 48 46 45 46 45 45 44 43 42 42 40 37 33 31 30 30 32 33 29 25 23 22 21 22 23 21 17 17 17 17 15 14 14 14 14 15 15 14 13 13 13 13 13 13 12 11 10 9 9 9 8 8 8 8 8 9 9 9 9 9 9 9 8 8 7 6 6 4 4 8 12 13 14 14 14 15
37 39 41 45 48 51 53 53 54 54 52 50 48 48 49 49 48 47 47 45 42 40 38 36 34 33 33 33 31 27 25 23 23 25 24 20 19 19 18 18 17 15 16 16 16 15 15 15 14 14 14 13 13 14 13 12 11 10 10 10 9 8 8 8 8 8 9 9 9 9 9 9 9 9 8 7 6 5 4 4 7 11 14 15 15 15
35 37 39 40 42 46 49 51 51 52 51 48 46 46 48 49 49 49 48 45 42 40 39 36 33 31 31 32 32 31 29 26 26 28 27 24 24 23 21 21 21 20 19 19 17 16 15 15 14 14 15 14 14 14 14 13 12 11 10 10 10 9 9 8 8 8 8 9 9 9 8 8 9 9 9 9 8 7 6 5 4 6 9 12 15 16
33 35 37 38 39 41 43 45 47 49 49 46 44 43 44 46 48 49 47 44 42 40 37 33 31 29 29 30 32 33 32 29 28 29 29 28 28 27 25 25 24 24 23 21 20 17 15 14 14 14 15 16 15 14 14 14 13 12 11 11 11 10 10 9 8 8 8 8 9 9 9 9 8 9 9 9 9 9 8 7 6 5 5 6 9 13
32 34 36 37 37 38 40 41 44 46 47 45 43 43 43 44 46 47 45 43 41 39 36 33 31 29 29 29 31 32 32 31 30 31 31 29 28 27 27 28 27 27 26 25 23 20 16 14 14 14 15 16 16 16 15 15 14 12 11 11 11 11 11 11 11 10 9 8 9 9 10 10 9 9 9 9 9 9 9 8 8 7 6 6 6 7
32 33 35 36 37 38 39 40 41 43 44 43 43 43 44 44 44 44 44 43 41 39 36 34 31 30 30 30 30 31 32 30 30 32 32 30 28 26 26 28 28 28 28 27 25 22 19 15 15 15 16 17 17 17 16 16 16 14 12 11 11 11 11 11 12 12 11 10 9 9 10 10 10 10 9 9 9 9 9 9 9 8 8 8 8 8
33 33 34 35 36 37 38 39 40 41 41 42 42 43 43 44 44 44 45 44 43 41 38 35 33 31 30 31 31 32 32 31 31 33 34 32 28 26 26 26 27 27 28 27 25 24 21 18 16 16 17 18 18 18 17 17 16 15 14 13 12 12 11 11 11 12 12 11 11 10 10 10 10 10 10 10 9 9 9 9 9 9 9 9 9 9
34 34 35 35 36 37 38 39 39 40 40 41 42 42 42 42 43 44 44 43 42 40 38 36 34 31 29 30 31 32 34 34 33 35 35 33 29 27 26 26 26 27 27 26 25 25 23 21 19 17 17 18 18 18 18 17 16 16 16 15 14 13 12 12 11 12 12 12 11 11 11 10 10 10 11 11 10 10 10 10 10 10 10 10 10 10
35 35 36 37 37 38 39 39 39 39 38 38 39 40 41 41 41 42 42 41 40 39 37 35 35 33 31 30 30 32 34 36 37 38 37 33 30 28 27 27 28 28 27 26 26 26 25 24 23 21 18 18 18 19 18 18 17 16 17 16 15 14 13 13 13 12 12 12 12 12 12 11 11 11 11 11 11 12 12 12 12 11 11 11 11 11
35 36 37 38 39 39 40 41 41 40 39 37 37 38 39 40 40 40 40 39 38 39 38 35 34 35 34 33 32 33 35 37 39 39 38 34 30 29 28 29 29 29 28 28 28 28 27 26 26 24 21 19 19 18 18 18 17 17 17 17 17 16 15 14 14 13 13 12 12 13 13 13 12 12 12 12 12 12 12 12 12 13 13 13 13 12
36 37 38 40 40 40 41 43 44 43 41 41 41 40 39 39 39 39 38 38 38 39 39 37 35 35 34 34 34 34 35 37 38 37 36 33 31 30 31 31 31 30 30 30 30 30 29 28 27 26 24 22 20 19 18 18 18 18 18 18 18 17 17 16 15 15 14 13 13 13 13 14 14 14 14 13 13 13 13 13 13 13 13 13 13 14
38 39 40 42 42 41 41 44 46 45 44 43 44 44 42 42 42 40 39 38 38 39 39 38 38 37 36 35 34 33 34 36 36 35 34 34 33 33 32 32 32 32 32 32 31 31 30 29 28 28 27 24 22 20 19 19 19 19 19 19 19 19 19 18 17 16 15 15 14 14 14 14 14 14 15 15 15 15 14 14 14 14 14 14 14 14
39 40 41 43 44 44 43 44 46 47 45 44 45 46 46 46 46 45 44 43 42 41 39 38 37 37 37 37 35 33 34 35 36 35 35 36 37 35 33 33 34 34 35 35 33 32 31 31 29 29 28 26 25 24 22 21 21 21 21 21 20 20 20 20 19 18 17 16 15 15 15 15 15 15 15 16 16 16 16 16 15 15 14 14 14 14
Wind_Direction
243 241 231 222 221 222 225 232 242 247 256 272 275 279 294 309 313 303 296 299 301 305 304 302 313 332 339 347 354 5 4 354 343 339 335 311 293 286 282 277 268 267 265 258 246 242 246 245 248 247 246 251 251 248 246 242 237 237 241 237 226 221 227 239 248 251 250 238 227 222 208 191 184 186 187 182 178 176 173 170 167 163 163 161 159 158
240 233 223 219 223 230 240 252 257 255 260 262 259 271 284 293 293 282 281 285 289 298 299 297 311 331 337 351 4 14 12 0 345 342 339 326 313 299 290 287 280 275 271 268 266 262 258 245 240 243 245 250 253 249 244 242 242 239 237 237 234 226 222 230 241 246 249 244 230 225 222 205 190 188 194 195 189 184 179 174 172 170 169 167 162 161
240 235 226 222 229 239 246 251 248 247 253 251 248 259 270 279 277 273 279 283 290 303 294 293 313 335 346 9 17 15 9 354 327 321 320 312 305 299 292 288 286 285 280 278 276 275 271 254 238 240 248 255 258 251 242 240 241 237 233 234 237 233 225 225 233 238 243 247 237 225 225 217 198 188 192 199 199 196 187 181 178 177 174 169 165 164
241 237 229 221 224 232 235 237 240 247 255 247 240 251 263 272 269 269 278 286 296 311 309 308 320 334 352 15 10 2 358 346 325 310 304 300 296 292 289 286 286 288 287 286 284 281 277 265 251 247 252 261 263 246 233 231 233 234 232 232 235 237 233 229 231 235 237 242 241 232 230 228 212 195 190 192 196 199 196 189 187 185 180 173 169 168
244 241 235 226 222 228 234 239 248 254 255 243 238 249 259 262 262 265 276 284 295 318 325 322 327 332 343 1 356 348 348 344 338 322 301 294 294 288 283 282 282 282 282 283 282 279 276 269 263 258 255 259 259 239 223 224 232 238 237 234 235 237 236 234 234 237 237 238 242 241 235 233 228 213 200 195 193 193 195 195 195 194 188 180 175 174
253 251 249 242 231 231 234 239 246 249 248 241 240 246 248 253 266 274 276 282 296 324 332 329 327 329 338 351 349 342 342 342 342 335 312 295 293 289 284 283 281 279 277 276 274 272 271 268 263 261 257 254 251 235 223 228 240 243 236 232 232 231 231 233 235 239 240 238 242 244 240 235 234 231 222 212 203 197 197 198 199 199 195 188 183 181
257 258 259 255 243 236 232 231 233 235 233 232 234 238 239 254 278 284 279 284 305 328 339 332 321 327 351 357 350 344 342 340 337 332 320 304 299 294 290 287 284 280 276 272 269 265 263 262 259 256 254 250 245 234 228 233 240 234 229 228 229 229 231 233 234 236 237 238 240 244 245 241 237 236 235 233 225 213 207 203 202 202 199 193 190 188
251 256 256 251 244 238 236 233 232 233 228 226 233 236 239 261 285 284 279 291 318 330 337 326 318 339 9 2 350 348 341 333 329 325 317 308 305 302 296 289 282 278 276 270 263 258 256 256 254 250 248 246 241 234 228 229 230 228 229 231 230 231 234 236 235 234 234 235 236 240 244 245 242 239 237 237 237 232 223 214 211 209 204 199 196 194
236 242 246 246 246 244 248 250 250 244 230 227 236 238 243 271 286 275 279 306 320 326 329 323 329 349 6 358 343 342 333 322 322 322 317 310 306 307 303 294 283 276 276 271 259 251 252 256 253 246 244 243 239 234 230 227 227 230 233 235 234 236 237 238 237 236 236 237 236 238 242 244 242 240 238 236 235 235 232 227 224 221 214 207 202 199
218 230 243 249 251 251 255 262 261 248 231 226 235 239 245 272 286 273 275 298 304 312 323 329 337 342 354 353 337 332 327 317 319 323 321 315 308 309 306 296 285 277 276 274 262 251 250 254 252 246 244 243 240 236 233 231 230 232 235 236 236 239 241 242 242 240 238 238 239 241 242 242 240 237 236 236 232 228 226 227 230 230 226 218 211 206
205 216 229 237 242 249 256 260 251 238 230 228 232 233 235 260 285 274 260 279 293 298 308 319 326 331 345 345 331 329 329 324 327 328 325 317 310 309 306 298 287 278 276 274 265 255 250 250 249 248 247 247 245 241 239 235 233 235 237 237 237 240 243 245 246 245 243 238 239 242 243 243 241 237 232 231 231 227 222 220 221 227 229 226 219 214
197 186 182 204 221 235 241 237 229 230 235 239 241 239 238 257 269 252 243 271 286 290 301 309 315 328 341 337 329 334 336 334 334 331 326 320 314 311 307 301 291 281 276 272 263 253 250 251 252 252 251 250 249 246 243 240 238 238 241 242 241 241 242 244 244 246 247 242 237 239 241 242 243 241 234 229 229 227 224 221 218 219 223 225 224 221
175 151 156 169 177 205 214 216 227 241 249 247 248 249 251 257 248 229 238 267 276 290 302 305 316 332 339 335 336 341 341 340 335 329 329 325 318 312 306 302 296 287 283 278 266 255 251 253 255 256 254 253 251 249 247 245 244 243 245 245 243 239 237 238 240 244 247 246 241 238 239 240 241 241 239 233 229 229 227 225 224 221 220 220 222 222
164 157 168 168 171 208 210 202 218 241 249 236 236 244 246 248 234 222 241 273 278 282 291 306 322 335 337 335 340 345 344 342 335 330 330 327 320 312 304 302 301 299 296 289 278 267 261 259 257 255 254 253 251 249 248 248 247 247 246 244 242 239 235 235 239 244 248 251 248 242 240 242 242 243 243 238 232 230 231 229 228 227 225 221 219 221
171 173 181 184 192 215 203 196 211 225 223 208 206 215 223 235 226 220 246 270 272 273 285 311 325 331 333 334 338 342 343 341 335 331 329 327 324 316 309 307 305 305 301 291 283 277 272 269 264 257 255 254 253 252 250 251 250 250 249 248 247 246 245 243 244 248 252 253 252 248 244 243 243 242 242 239 233 230 231 231 230 230 229 226 222 222
185 186 188 197 208 192 195 209 225 237 232 218 215 215 215 228 225 228 256 266 267 278 295 315 323 326 331 333 335 340 342 339 336 334 332 332 329 326 320 312 305 302 299 291 284 280 275 272 267 260 256 256 257 256 254 254 254 253 253 252 252 252 251 250 250 252 253 253 253 252 248 245 245 243 240 237 234 231 230 228 228 230 231 229 227 225
194 196 193 197 197 188 199 217 231 241 233 223 234 239 219 220 225 234 260 275 280 293 305 316 322 324 328 331 333 339 341 340 340 339 338 340 342 340 333 319 306 300 298 293 286 281 277 271 265 260 256 256 257 257 256 255 254 252 249 248 249 250 252 252 253 254 253 254 253 252 248 245 246 245 239 234 234 234 232 227 224 225 229 231 230 228
195 198 193 192 198 204 209 214 219 227 222 218 233 228 216 223 239 244 259 284 294 299 306 311 316 320 324 327 332 339 343 344 345 345 344 347 350 347 337 324 313 306 301 297 292 285 279 273 268 265 263 262 261 260 259 256 252 249 247 247 248 252 257 260 261 259 257 257 255 252 250 248 248 245 236 230 231 232 232 229 224 221 223 230 232 228
197 196 194 197 207 217 215 205 204 221 225 220 221 217 216 227 246 256 268 284 290 295 302 306 311 318 320 323 331 341 345 346 349 351 350 347 344 339 333 325 317 311 307 305 302 295 286 279 277 276 276 274 270 266 262 259 256 255 256 259 260 262 264 266 268 267 263 261 257 254 253 251 251 248 238 231 230 232 233 231 229 224 220 225 231 229
201 197 196 202 207 212 215 206 199 208 215 214 215 218 223 228 243 260 270 280 288 294 300 303 308 312 313 322 335 341 343 345 350 355 356 349 343 340 337 332 323 316 312 310 307 301 293 289 288 288 287 284 279 273 268 265 267 269 270 270 267 266 266 268 273 272 267 265 262 257 255 252 251 250 243 233 228 228 231 231 231 229 221 220 228 230
208 201 199 206 207 206 211 207 205 214 222 228 226 227 235 237 244 258 264 270 278 284 293 297 299 303 310 326 337 336 338 343 349 357 359 355 349 345 342 337 328 319 313 310 308 305 300 296 294 293 291 288 281 275 273 274 276 277 277 274 267 263 266 273 276 273 268 266 265 261 255 250 248 247 245 239 229 225 225 226 228 229 224 219 223 228
215 206 202 208 208 206 209 206 206 213 223 236 234 227 238 240 241 251 258 265 270 273 283 289 293 300 309 323 330 330 333 339 346 355 358 355 350 344 340 337 331 323 317 313 313 311 308 302 299 296 292 286 281 279 279 280 279 279 279 277 269 263 271 278 279 277 271 267 265 259 251 246 243 240 242 243 234 225 222 222 224 227 226 219 219 224
221 213 205 205 207 212 218 217 213 214 224 246 250 237 237 240 244 253 256 261 271 277 283 286 290 297 303 312 321 324 329 336 343 349 350 351 347 339 336 337 333 328 324 321 320 317 313 307 303 299 291 284 282 281 282 282 283 283 278 272 265 265 274 279 280 281 277 271 267 258 249 244 238 235 237 238 234 228 224 223 223 225 226 221 217 220
227 222 212 209 210 215 222 224 223 226 235 254 264 253 246 249 256 262 260 261 266 271 276 280 285 292 298 306 314 319 326 332 337 342 343 343 342 337 335 337 337 334 331 328 324 321 316 309 303 299 290 280 279 280 281 286 291 288 274 262 259 268 278 281 282 284 281 274 267 259 253 245 237 235 236 233 232 232 226 223 223 225 226 223 218 218
233 233 223 218 218 220 225 227 227 234 241 249 260 259 254 254 260 266 267 266 266 266 271 279 285 292 298 304 308 313 320 326 330 337 338 337 337 335 334 337 337 336 336 332 328 326 320 311 303 298 290 280 279 280 282 290 296 288 271 261 266 277 285 288 288 289 286 276 266 258 252 246 240 236 233 230 232 238 232 224 223 224 225 225 222 219
237 237 230 224 224 224 227 231 233 239 245 249 254 259 260 259 264 271 273 273 274 275 279 285 290 295 300 304 307 310 315 320 327 335 338 335 334 332 331 334 334 335 337 336 332 329 322 310 301 297 289 281 281 281 282 288 291 286 275 269 276 287 292 294 295 297 294 282 266 255 245 243 238 225 227 231 229 233 237 227 220 221 223 224 226 225
239 237 233 229 229 226 225 228 231 236 244 250 255 260 263 263 265 271 276 278 280 282 286 289 291 295 301 304 305 308 312 317 325 334 337 336 336 333 327 327 330 334 338 338 336 333 322 307 299 296 292 285 284 286 287 289 289 286 283 279 282 290 295 297 301 304 303 289 268 255 240 239 233 205 216 231 230 231 236 226 217 219 221 222 226 227
245 243 240 237 237 234 232 233 234 234 237 243 250 257 264 265 265 267 272 277 279 282 286 288 289 292 298 300 299 300 306 313 320 329 334 335 339 336 326 322 328 333 335 336 337 334 323 308 300 300 301 296 292 293 294 294 292 291 291 289 287 292 298 302 305 310 310 295 266 256 243 234 226 206 211 224 229 233 231 219 214 218 220 222 225 226
253 251 248 245 244 243 241 242 244 242 240 239 241 247 256 262 265 266 267 270 273 277 281 283 285 288 293 297 297 296 300 307 315 322 327 330 334 333 325 322 328 332 332 334 336 335 326 315 309 308 308 306 302 301 300 299 299 298 298 297 295 298 305 307 309 315 321 311 270 253 245 229 222 220 216 213 216 221 218 213 213 216 217 221 224 224
258 257 255 253 251 250 248 248 250 249 248 245 243 244 248 254 260 264 268 269 271 274 277 281 284 287 290 291 294 297 298 302 309 314 318 325 329 327 323 326 332 333 333 334 337 339 334 327 321 315 311 310 309 310 310 309 310 308 305 307 307 308 313 315 314 317 327 330 297 257 243 228 220 223 219 210 206 211 213 214 216 217 217 219 220 223
256 258 259 259 257 254 251 250 251 252 251 251 251 249 249 251 254 259 265 270 272 273 277 280 283 287 288 287 290 295 295 297 302 307 314 325 327 322 321 329 335 335 334 334 339 341 338 332 329 321 314 312 312 315 318 320 322 320 315 314 315 317 322 324 322 319 326 342 342 301 257 235 221 217 219 214 211 215 218 217 217 220 221 220 222 226
253 256 258 260 261 258 255 252 252 254 253 254 257 256 253 253 254 258 262 266 269 271 275 278 279 284 288 288 289 292 293 294 297 303 312 323 325 321 321 326 331 332 329 330 334 339 336 330 328 323 319 317 316 319 324 326 329 327 323 322 322 326 333 332 329 328 328 341 6 10 286 239 222 212 215 217 216 221 224 221 218 219 221 223 226 227
251 253 255 258 259 259 259 257 257 257 256 256 259 259 258 258 261 263 265 266 267 270 274 276 277 281 286 287 287 288 290 293 295 299 306 313 317 318 318 323 328 328 325 325 329 335 335 330 327 325 323 323 322 323 327 329 332 332 329 329 330 336 341 337 333 335 333 338 4 28 19 237 230 222 222 225 225 227 230 226 222 221 224 227 228 228
247 250 253 256 258 257 258 259 260 259 254 253 256 259 261 264 268 270 270 267 266 267 269 271 275 279 284 287 285 283 285 288 290 295 301 306 310 313 313 318 323 324 325 326 329 336 336 333 332 328 328 330 328 327 329 331 335 336 334 334 337 340 343 340 336 338 339 341 351 7 16 304 241 229 225 230 236 237 237 234 230 228 229 231 232 230
242 247 250 254 255 255 255 257 259 258 252 249 254 260 263 266 270 273 272 267 262 263 264 267 271 277 282 286 284 279 279 282 285 291 297 300 304 307 307 310 312 317 323 326 330 337 338 336 337 335 334 335 331 329 331 332 335 339 342 343 344 343 343 341 339 338 339 342 345 349 355 355 340 275 231 226 234 243 244 239 235 233 230 231 231 226
239 244 248 251 253 253 254 255 258 259 255 252 256 261 263 265 268 271 272 269 263 260 261 263 268 275 281 285 283 277 275 277 279 285 291 294 297 300 301 301 301 304 314 321 328 336 337 334 336 339 339 337 331 327 328 330 333 340 347 351 350 346 344 343 342 339 335 335 339 343 345 346 348 341 302 241 231 238 244 242 237 232 227 225 225 221
240 241 244 249 252 253 255 256 258 259 258 256 257 260 261 263 265 266 268 269 266 261 259 260 264 275 284 286 282 276 272 272 275 281 285 287 289 292 293 293 293 293 301 312 321 328 331 329 329 333 335 333 328 324 323 325 330 336 344 350 350 348 346 344 341 339 334 331 332 337 340 342 343 343 336 313 254 235 236 238 237 231 224 220 220 221
243 241 241 244 248 250 253 255 257 259 259 258 258 260 261 262 264 263 263 264 263 261 259 256 258 272 282 282 279 275 269 267 272 276 277 279 283 285 286 288 288 286 292 305 314 317 318 319 321 322 324 325 325 324 321 321 325 330 334 338 341 343 346 344 339 336 334 332 331 333 335 336 336 337 337 337 324 265 235 232 233 231 226 220 217 218
246 244 242 242 244 246 248 251 255 258 261 262 262 262 263 263 263 263 262 262 262 262 261 258 258 266 272 272 270 268 266 267 271 272 270 271 276 279 281 284 284 282 287 299 309 311 307 306 311 314 315 317 321 323 321 320 322 326 326 325 327 332 338 340 336 334 333 333 332 332 330 328 328 329 330 334 339 332 276 241 235 232 229 225 221 220
247 246 245 244 244 246 247 249 253 256 259 261 262 262 263 263 263 263 263 263 263 263 263 262 261 263 263 261 259 258 260 263 267 268 268 270 274 276 277 280 281 280 283 291 301 305 302 298 299 303 306 308 312 317 319 317 317 319 320 317 316 320 326 331 330 329 328 328 329 330 328 323 321 322 325 328 329 332 327 291 253 240 236 233 229 227
248 247 247 246 246 247 248 249 251 253 255 257 258 260 261 262 263 264 264 264 264 264 264 264 263 260 256 254 252 252 252 254 257 261 266 270 273 274 275 277 277 276 278 283 291 297 297 295 294 295 296 297 300 305 310 313 313 313 314 312 311 310 312 315 318 320 321 321 322 323 323 320 317 317 320 322 323 321 321 321 301 265 248 242 239 238
250 248 248 248 248 248 248 249 249 251 253 254 255 257 258 260 261 262 263 264 264 265 264 264 262 258 254 251 250 250 251 250 250 255 261 265 268 272 276 276 274 273 274 277 282 287 288 290 293 293 291 290 291 294 299 304 307 309 311 310 308 307 307 307 307 309 313 314 314 313 313 312 312 313 315 316 317 317 317 316 312 300 281 262 250 246
251 251 250 250 250 249 249 249 248 250 252 253 253 254 255 257 258 260 262 263 263 263 262 260 257 253 250 250 250 250 251 249 248 251 256 260 263 268 275 276 273 271 271 272 276 279 278 280 287 290 289 288 287 287 290 293 296 300 306 309 308 306 306 304 303 302 304 307 307 306 306 306 306 307 308 309 310 310 310 311 309 304 299 292 278 264
252 252 252 252 252 251 251 251 250 250 252 253 253 253 253 254 256 258 259 260 261 261 260 258 255 250 246 245 246 249 250 247 245 248 252 256 258 262 269 274 274 270 268 269 272 272 270 272 278 284 286 286 286 286 288 290 290 290 295 303 306 304 302 301 301 300 299 299 300 299 299 299 300 300 301 302 304 303 302 302 301 299 295 291 287 284
253 253 253 253 254 254 253 253 253 253 253 252 252 251 252 253 254 255 256 258 258 258 258 256 254 251 247 243 241 243 246 244 241 244 250 253 254 255 258 265 270 268 266 266 268 268 268 269 273 277 281 283 284 285 287 288 287 286 288 293 297 297 295 294 295 296 296 295 296 295 294 293 293 294 294 294 295 295 295 294 293 291 288 284 283 283
255 255 254 254 255 255 255 255 255 255 255 254 254 253 252 252 252 254 256 258 258 258 257 257 255 252 248 245 241 240 242 242 240 242 246 248 249 249 251 256 262 263 263 263 264 266 269 271 272 273 275 277 280 283 286 287 286 284 285 287 289 289 289 287 286 288 290 292 293 294 293 292 288 287 287 287 287 286 287 287 288 287 285 283 281 279
258 257 256 255 255 255 256 256 256 256 256 256 256 255 255 254 253 253 254 256 257 257 255 254 255 253 249 246 243 240 240 240 240 241 242 242 242 244 246 251 254 256 258 261 263 265 269 271 272 272 271 272 275 279 283 284 284 283 283 283 283 283 282 280 278 278 280 284 288 291 292 291 288 285 283 282 283 282 282 282 283 283 284 284 283 281
261 259 257 256 255 255 255 256 256 256 255 254 254 255 257 256 255 254 253 253 254 255 253 251 251 251 248 244 243 243 242 240 240 242 242 239 238 240 243 246 248 250 254 259 263 265 266 267 268 269 269 268 269 274 278 280 280 279 279 277 276 275 274 273 272 270 270 273 278 284 288 288 287 287 285 283 282 281 281 282 282 282 283 283 283 284
262 260 258 257 255 254 254 254 255 254 253 253 253 253 255 255 254 255 256 254 253 253 252 249 248 249 247 243 241 241 242 240 239 241 242 240 237 239 242 244 244 245 250 256 260 262 263 263 263 266 267 265 264 266 270 273 274 274 274 272 270 269 268 267 267 265 265 265 268 273 279 283 285 285 284 283 281 281 281 281 281 280 280 279 279 280
261 260 259 258 257 254 253 253 254 253 251 251 252 252 253 253 253 253 254 253 252 252 251 248 247 249 249 246 242 240 240 240 237 238 241 241 241 241 242 241 241 242 247 251 255 258 259 258 258 260 262 261 261 261 262 263 265 268 268 267 265 264 264 263 263 263 263 261 262 264 268 274 279 281 282 281 281 279 278 278 278 278 278 278 277 277
261 260 259 259 258 256 255 254 255 255 252 250 251 252 252 252 253 253 253 253 253 253 252 249 246 246 247 248 247 243 238 237 236 235 236 240 242 242 240 239 241 244 246 247 249 252 253 254 255 257 258 258 257 256 255 255 257 260 263 264 262 261 261 261 261 262 262 262 262 262 263 266 269 273 276 278 278 278 277 276 275 275 276 276 277 278
Height
5889 5890 5891 5892 5892 5892 5891 5891 5891 5892 5894 5895 5895 5894 5895 5895 5895 5895 5894 5894 5893 5893 5892 5891 5891 5892 5892 5892 5891 5891 5890 5889 5888 5887 5886 5885 5884 5884 5884 5884 5884 5884 5884 5885 5886 5887 5887 5887 5887 5887 5887 5886 5886 5886 5886 5887 5887 5888 5889 5889 5890 5890 5891 5892 5893 5894 5894 5895 5894 5894 5894 5894 5894 5894 5895 5895 5896 5897 5898 5899 5900 5900 5901 5901 5901 5902
5888 5889 5890 5890 5890 5890 5890 5891 5891 5892 5893 5894 5894 5894 5894 5894 5895 5894 5894 5893 5893 5892 5892 5891 5891 5891 5891 5891 5891 5890 5890 5889 5888 5887 5886 5885 5884 5883 5883 5883 5883 5883 5883 5883 5884 5884 5885 5885 5885 5885 5884 5884 5884 5884 5884 5885 5886 5886 5887 5888 5889 5889 5890 5891 5891 5892 5893 5894 5894 5894 5893 5893 5894 5894 5895 5895 5896 5897 5898 5899 5900 5900 5901 5901 5901 5902
5887 5888 5888 5889 5889 5889 5890 5890 5891 5891 5892 5893 5893 5893 5893 5894 5894 5893 5893 5893 5892 5892 5892 5891 5891 5891 5891 5891 5890 5889 5889 5888 5888 5887 5886 5885 5884 5883 5882 5882 5882 5882 5882 5881 5881 5882 5882 5882 5883 5882 5882 5882 5882 5882 5882 5882 5883 5884 5885 5887 5889 5889 5889 5889 5890 5891 5892 5893 5893 5893 5893 5893 5893 5893 5894 5895 5896 5897 5898 5899 5900 5900 5901 5901 5901 5902
5885 5886 5887 5888 5888 5888 5888 5889 5890 5891 5891 5892 5892 5892 5893 5893 5893 5893 5893 5892 5892 5891 5891 5891 5891 5891 5890 5890 5889 5889 5888 5887 5886 5886 5885 5884 5884 5883 5882 5881 5881 5880 5880 5880 5880 5880 5880 5880 5880 5880 5879 5879 5880 5880 5880 5880 5881 5883 5884 5886 5887 5888 5888 5888 5888 5890 5891 5892 5892 5892 5892 5892 5892 5892 5892 5894 5895 5896 5897 5898 5899 5900 5901 5901 5902 5902
5884 5885 5886 5886 5887 5887 5888 5889 5889 5890 5891 5891 5891 5892 5892 5892 5892 5892 5892 5892 5891 5891 5891 5890 5890 5890 5890 5889 5888 5888 5887 5886 5885 5885 5884 5883 5883 5882 5881 5880 5879 5879 5878 5878 5878 5878 5878 5878 5878 5878 5877 5877 5878 5878 5878 5879 5880 5882 5883 5885 5886 5886 5887 5888 5888 5888 5889 5891 5891 5891 5892 5892 5892 5891 5891 5892 5893 5894 5896 5897 5898 5899 5900 5901 5902 5902
5883 5884 5885 5885 5886 5887 5888 5888 5889 5890 5890 5890 5891 5891 5891 5891 5891 5892 5891 5891 5890 5890 5890 5890 5890 5890 5889 5888 5887 5886 5886 5885 5884 5884 5883 5883 5882 5881 5880 5879 5878 5877 5877 5876 5876 5876 5876 5876 5876 5875 5875 5875 5876 5877 5878 5879 5880 5881 5882 5883 5883 5883 5885 5886 5887 5887 5888 5889 5890 5890 5890 5891 5891 5891 5891 5891 5892 5892 5893 5895 5896 5898 5899 5900 5901 5902
5882 5883 5884 5885 5885 5886 5887 5888 5888 5889 5889 5889 5890 5890 5891 5891 5891 5891 5890 5890 5890 5889 5889 5889 5889 5889 5888 5887 5886 5885 5884 5884 5883 5883 5882 5881 5881 5880 5879 5878 5877 5876 5875 5875 5875 5874 5874 5874 5874 5874 5874 5874 5875 5877 5878 5879 5879 5879 5879 5879 5879 5881 5883 5884 5885 5886 5887 5887 5888 5888 5889 5890 5890 5891 5891 5892 5892 5892 5892 5893 5894 5896 5897 5899 5900 5901
5882 5883 5883 5884 5885 5886 5887 5887 5887 5887 5888 5889 5889 5890 5890 5891 5891 5890 5889 5889 5889 5889 5889 5889 5888 5888 5887 5886 5885 5884 5884 5883 5883 5882 5881 5880 5879 5878 5877 5876 5875 5874 5873 5873 5873 5873 5872 5872 5872 5872 5872 5873 5874 5875 5876 5877 5877 5876 5876 5876 5878 5879 5881 5883 5883 5884 5884 5885 5886 5886 5887 5889 5889 5890 5891 5891 5892 5892 5893 5893 5894 5895 5896 5898 5899 5900
5881 5882 5882 5883 5884 5885 5886 5886 5886 5887 5888 5888 5888 5889 5890 5890 5889 5889 5889 5888 5888 5888 5888 5888 5887 5886 5886 5885 5884 5884 5883 5882 5881 5880 5879 5879 5878 5877 5876 5875 5874 5873 5872 5872 5871 5871 5871 5870 5870 5870 5870 5871 5872 5873 5874 5874 5874 5874 5874 5875 5876 5878 5879 5880 5881 5882 5882 5882 5883 5884 5885 5886 5887 5888 5889 5891 5891 5891 5892 5893 5894 5895 5896 5897 5898 5899
5880 5881 5881 5883 5884 5885 5885 5885 5886 5886 5887 5887 5888 5888 5888 5888 5888 5888 5888 5887 5887 5887 5887 5887 5886 5885 5885 5884 5884 5883 5882 5881 5880 5879 5878 5877 5876 5876 5875 5873 5873 5872 5871 5871 5870 5869 5869 5868 5868 5868 5868 5869 5870 5871 5872 5872 5872 5872 5872 5873 5875 5875 5876 5878 5879 5879 5880 5880 5881 5882 5883 5884 5884 5885 5887 5888 5890 5890 5891 5892 5894 5895 5896 5897 5897 5898
5879 5880 5881 5882 5884 5884 5885 5885 5886 5886 5886 5887 5887 5887 5887 5887 5887 5887 5887 5887 5886 5886 5886 5886 5885 5884 5884 5884 5883 5882 5881 5880 5879 5878 5877 5876 5875 5875 5874 5872 5871 5871 5870 5869 5868 5868 5867 5867 5866 5866 5866 5867 5868 5869 5870 5870 5871 5871 5871 5872 5873 5874 5875 5876 5876 5876 5877 5878 5880 5880 5881 5882 5883 5883 5884 5885 5887 5888 5889 5890 5891 5893 5894 5896 5897 5897
5878 5879 5880 5882 5883 5884 5885 5885 5886 5886 5886 5886 5886 5885 5885 5886 5886 5886 5886 5886 5886 5885 5885 5885 5884 5883 5883 5883 5882 5881 5879 5878 5878 5877 5876 5875 5874 5873 5872 5871 5870 5869 5868 5867 5866 5866 5866 5865 5865 5865 5865 5866 5867 5868 5868 5869 5869 5869 5869 5870 5871 5873 5874 5874 5874 5873 5874 5876 5877 5878 5879 5879 5881 5882 5882 5883 5883 5885 5886 5887 5889 5890 5892 5894 5895 5896
5878 5879 5880 5882 5883 5884 5884 5885 5885 5885 5885 5885 5884 5884 5884 5884 5884 5885 5885 5885 5885 5884 5884 5884 5883 5883 5882 5882 5881 5880 5878 5877 5877 5876 5875 5874 5873 5872 5871 5869 5868 5867 5866 5865 5865 5864 5864 5864 5863 5863 5863 5864 5865 5866 5867 5867 5867 5868 5868 5869 5870 5871 5871 5871 5871 5871 5871 5873 5875 5876 5876 5877 5879 5880 5880 5881 5882 5883 5884 5885 5887 5888 5890 5891 5893 5895
5878 5879 5881 5882 5883 5883 5883 5884 5884 5884 5884 5884 5883 5883 5883 5883 5883 5884 5884 5884 5884 5883 5883 5883 5883 5882 5882 5881 5880 5879 5878 5877 5876 5874 5874 5873 5871 5870 5868 5867 5866 5865 5864 5864 5864 5863 5863 5862 5862 5862 5862 5863 5863 5864 5864 5864 5865 5865 5866 5867 5867 5868 5868 5868 5868 5868 5869 5871 5872 5873 5874 5876 5877 5877 5877 5879 5880 5881 5883 5884 5885 5887 5888 5889 5891 5892
5878 5880 5881 5882 5882 5882 5883 5883 5883 5882 5882 5882 5882 5882 5882 5882 5882 5883 5883 5883 5883 5883 5882 5882 5882 5882 5881 5880 5879 5878 5877 5876 5875 5873 5872 5871 5870 5868 5866 5865 5865 5864 5864 5863 5862 5862 5861 5861 5861 5860 5860 5860 5861 5862 5862 5862 5862 5863 5863 5864 5864 5864 5865 5865 5865 5866 5867 5868 5868 5869 5870 5872 5873 5873 5874 5876 5878 5879 5880 5882 5884 5885 5887 5888 5889 5890
5878 5879 5880 5881 5881 5881 5881 5881 5881 5881 5881 5881 5881 5882 5882 5882 5882 5882 5882 5882 5882 5882 5882 5881 5881 5881 5881 5880 5878 5878 5876 5875 5873 5872 5870 5869 5868 5866 5865 5864 5863 5863 5862 5861 5860 5860 5859 5859 5858 5858 5858 5858 5858 5859 5859 5860 5860 5860 5861 5861 5862 5862 5862 5862 5863 5863 5864 5865 5865 5866 5867 5868 5868 5869 5870 5873 5875 5876 5877 5879 5881 5883 5884 5886 5887 5889
5877 5878 5879 5880 5880 5880 5880 5880 5880 5880 5880 5881 5881 5881 5881 5881 5882 5882 5882 5881 5881 5881 5881 5880 5880 5880 5880 5879 5878 5877 5876 5874 5872 5871 5869 5867 5866 5865 5864 5863 5862 5861 5860 5859 5858 5857 5856 5856 5855 5855 5855 5855 5856 5857 5857 5858 5858 5858 5858 5859 5859 5859 5859 5860 5860 5860 5861 5861 5861 5862 5862 5863 5864 5865 5866 5869 5871 5873 5874 5876 5878 5879 5881 5883 5885 5887
5875 5877 5877 5878 5879 5879 5879 5879 5879 5879 5880 5880 5880 5880 5881 5881 5881 5881 5881 5880 5880 5880 5880 5879 5879 5879 5878 5878 5877 5876 5875 5873 5871 5870 5868 5866 5865 5863 5862 5861 5860 5859 5858 5857 5856 5855 5854 5853 5852 5852 5853 5854 5854 5855 5855 5855 5856 5856 5856 5856 5857 5857 5856 5856 5857 5857 5857 5857 5857 5857 5857 5859 5860 5861 5862 5865 5867 5869 5871 5873 5874 5876 5878 5880 5882 5884
5874 5875 5876 5877 5877 5878 5878 5878 5879 5879 5879 5880 5879 5879 5879 5880 5880 5880 5879 5879 5879 5879 5878 5878 5878 5878 5877 5877 5876 5875 5874 5872 5871 5869 5867 5866 5864 5863 5861 5860 5859 5858 5857 5855 5854 5852 5851 5851 5851 5851 5852 5852 5852 5852 5853 5853 5853 5853 5853 5854 5854 5854 5853 5853 5853 5853 5853 5852 5852 5853 5854 5855 5856 5857 5859 5861 5863 5866 5868 5870 5872 5873 5875 5877 5879 5882
5872 5873 5874 5875 5876 5877 5877 5878 5878 5878 5878 5878 5878 5878 5878 5878 5878 5878 5878 5878 5878 5877 5877 5877 5877 5877 5876 5876 5875 5874 5873 5871 5870 5869 5867 5866 5864 5862 5860 5859 5857 5856 5855 5854 5852 5851 5850 5850 5850 5850 5851 5850 5850 5850 5850 5850 5850 5850 5851 5850 5850 5850 5850 5850 5850 5850 5849 5849 5849 5850 5851 5852 5853 5854 5855 5857 5859 5862 5865 5867 5869 5871 5872 5874 5876 5879
5871 5872 5873 5874 5875 5876 5876 5877 5877 5877 5877 5877 5877 5877 5877 5877 5877 5876 5877 5877 5877 5877 5876 5876 5876 5876 5875 5875 5874 5873 5872 5871 5870 5869 5867 5865 5864 5862 5860 5858 5856 5855 5853 5852 5851 5850 5849 5849 5849 5849 5849 5849 5849 5848 5848 5848 5848 5848 5848 5847 5847 5847 5847 5847 5847 5847 5846 5845 5846 5847 5848 5848 5849 5850 5851 5853 5855 5858 5860 5863 5866 5868 5870 5871 5873 5876
5870 5871 5872 5872 5874 5874 5874 5875 5875 5875 5875 5875 5875 5875 5875 5875 5875 5875 5876 5876 5876 5876 5875 5875 5875 5875 5874 5874 5873 5872 5871 5870 5869 5868 5866 5865 5863 5861 5859 5857 5855 5853 5851 5850 5850 5849 5849 5848 5848 5848 5848 5848 5848 5847 5847 5847 5846 5846 5846 5845 5845 5844 5844 5844 5844 5844 5844 5843 5843 5843 5844 5845 5845 5846 5849 5851 5853 5855 5857 5860 5863 5865 5867 5868 5870 5873
5868 5869 5870 5871 5872 5873 5873 5873 5874 5874 5874 5874 5874 5875 5875 5875 5874 5874 5875 5875 5875 5875 5874 5874 5874 5874 5873 5873 5872 5872 5871 5870 5868 5867 5865 5864 5863 5861 5858 5856 5854 5852 5850 5849 5848 5848 5847 5847 5847 5846 5847 5847 5847 5846 5846 5846 5845 5844 5843 5843 5842 5842 5842 5841 5841 5841 5841 5841 5840 5840 5841 5842 5842 5843 5845 5847 5850 5852 5855 5857 5859 5861 5864 5866 5867 5870
5866 5868 5869 5870 5871 5871 5871 5872 5872 5872 5873 5873 5873 5874 5874 5874 5874 5873 5874 5874 5874 5874 5873 5872 5872 5872 5872 5872 5871 5871 5870 5869 5868 5866 5865 5863 5862 5860 5857 5855 5853 5852 5850 5848 5847 5847 5846 5846 5845 5845 5845 5846 5846 5845 5845 5844 5843 5842 5842 5841 5841 5841 5840 5839 5839 5839 5838 5838 5838 5838 5838 5839 5840 5841 5842 5844 5847 5849 5851 5853 5855 5858 5861 5863 5864 5867
5865 5867 5868 5869 5869 5869 5870 5870 5871 5871 5871 5872 5872 5872 5873 5873 5873 5872 5872 5873 5873 5872 5871 5871 5871 5871 5871 5871 5870 5870 5869 5868 5867 5865 5864 5862 5861 5859 5857 5855 5853 5851 5850 5848 5846 5845 5845 5845 5844 5844 5844 5844 5844 5844 5843 5843 5842 5841 5841 5840 5840 5840 5839 5838 5837 5837 5836 5836 5836 5836 5836 5837 5838 5838 5839 5841 5844 5846 5848 5850 5852 5855 5858 5860 5862 5863
5864 5865 5865 5866 5867 5868 5868 5868 5869 5870 5870 5871 5871 5871 5871 5871 5871 5871 5871 5871 5871 5871 5870 5870 5869 5869 5870 5870 5869 5869 5869 5867 5866 5865 5863 5861 5859 5858 5856 5854 5852 5851 5849 5847 5846 5845 5844 5844 5844 5843 5843 5843 5842 5842 5842 5841 5841 5840 5840 5839 5839 5839 5838 5837 5836 5835 5835 5834 5834 5834 5834 5835 5835 5836 5837 5837 5839 5841 5845 5847 5850 5852 5855 5857 5859 5860
5861 5862 5863 5864 5865 5865 5865 5865 5866 5867 5868 5869 5869 5869 5870 5870 5870 5869 5869 5869 5869 5869 5869 5868 5867 5868 5869 5868 5868 5868 5867 5866 5865 5864 5862 5860 5858 5856 5855 5854 5852 5850 5848 5847 5845 5844 5843 5843 5842 5842 5842 5841 5841 5841 5840 5840 5840 5839 5838 5838 5838 5837 5837 5836 5835 5834 5833 5833 5832 5832 5832 5833 5833 5834 5835 5836 5836 5838 5841 5844 5847 5849 5852 5854 5855 5857
5859 5860 5861 5862 5862 5863 5863 5863 5863 5864 5865 5866 5867 5867 5867 5867 5867 5867 5867 5867 5867 5867 5867 5866 5865 5866 5867 5867 5867 5867 5866 5865 5864 5863 5861 5860 5857 5855 5854 5853 5851 5850 5848 5846 5845 5844 5843 5842 5841 5841 5841 5840 5840 5839 5839 5839 5838 5838 5837 5837 5836 5836 5835 5834 5834 5833 5832 5831 5830 5829 5829 5830 5831 5833 5834 5835 5836 5836 5839 5841 5844 5846 5849 5851 5852 5855
5856 5856 5857 5859 5860 5860 5861 5862 5862 5862 5863 5864 5865 5865 5865 5865 5865 5865 5865 5865 5864 5865 5865 5864 5864 5864 5865 5866 5865 5865 5865 5864 5863 5862 5861 5859 5857 5855 5853 5852 5851 5849 5847 5845 5844 5843 5842 5841 5840 5840 5839 5839 5838 5838 5838 5838 5837 5837 5836 5836 5835 5834 5834 5833 5833 5832 5831 5829 5828 5828 5828 5828 5830 5831 5832 5834 5835 5836 5838 5839 5840 5842 5844 5847 5849 5852
5852 5853 5854 5855 5856 5857 5858 5859 5859 5860 5861 5862 5862 5863 5863 5863 5863 5863 5862 5862 5862 5863 5862 5862 5862 5862 5863 5863 5864 5863 5863 5863 5862 5861 5860 5858 5856 5854 5853 5852 5851 5849 5847 5845 5844 5843 5842 5840 5839 5839 5838 5838 5837 5837 5836 5836 5836 5835 5835 5834 5834 5833 5833 5833 5832 5831 5830 5828 5826 5826 5827 5827 5828 5829 5830 5832 5834 5835 5836 5837 5838 5839 5841 5844 5847 5849
5848 5849 5850 5851 5853 5853 5854 5855 5856 5857 5858 5859 5860 5860 5861 5861 5861 5861 5860 5860 5860 5860 5860 5860 5860 5860 5860 5861 5861 5861 5861 5861 5860 5859 5858 5857 5855 5853 5852 5851 5850 5849 5846 5844 5843 5842 5841 5840 5839 5838 5837 5836 5836 5835 5835 5835 5835 5834 5834 5833 5833 5833 5833 5832 5831 5829 5828 5827 5826 5826 5826 5826 5826 5827 5828 5829 5830 5831 5832 5834 5836 5838 5840 5843 5845 5847
5844 5845 5846 5847 5848 5849 5850 5851 5852 5853 5854 5855 5856 5857 5858 5858 5858 5858 5858 5858 5858 5858 5858 5858 5858 5858 5858 5858 5859 5859 5859 5859 5858 5858 5857 5856 5854 5852 5851 5850 5850 5848 5846 5844 5842 5841 5840 5839 5838 5837 5836 5836 5835 5835 5834 5834 5834 5834 5833 5832 5832 5832 5832 5831 5830 5828 5827 5827 5827 5826 5825 5825 5825 5826 5826 5826 5827 5828 5830 5831 5833 5836 5838 5840 5842 5844
5840 5841 5842 5842 5843 5845 5846 5847 5848 5849 5850 5852 5853 5854 5854 5854 5855 5855 5855 5854 5854 5855 5856 5855 5855 5856 5856 5856 5856 5857 5857 5857 5856 5856 5855 5854 5853 5851 5850 5849 5848 5847 5845 5843 5842 5840 5839 5838 5837 5836 5836 5835 5835 5834 5834 5833 5833 5833 5832 5832 5831 5831 5831 5830 5829 5828 5827 5826 5826 5826 5825 5824 5824 5825 5825 5825 5825 5826 5828 5829 5831 5833 5835 5837 5839 5841
5836 5837 5838 5838 5839 5841 5842 5842 5844 5844 5846 5848 5850 5850 5850 5851 5851 5851 5851 5850 5851 5852 5853 5853 5853 5853 5854 5853 5853 5854 5855 5855 5854 5854 5853 5852 5851 5850 5849 5848 5847 5846 5844 5843 5841 5839 5838 5837 5836 5836 5835 5835 5834 5834 5833 5833 5833 5832 5832 5831 5830 5830 5829 5829 5828 5827 5826 5825 5825 5826 5825 5825 5824 5825 5825 5826 5825 5825 5826 5828 5830 5831 5833 5834 5836 5838
5831 5832 5833 5833 5834 5836 5837 5838 5838 5839 5842 5846 5846 5845 5846 5847 5847 5848 5847 5847 5847 5848 5850 5851 5851 5851 5851 5851 5851 5851 5852 5852 5852 5852 5851 5850 5850 5849 5848 5847 5846 5845 5843 5842 5841 5839 5837 5836 5835 5835 5834 5834 5834 5833 5833 5832 5832 5832 5831 5830 5830 5829 5828 5827 5827 5826 5826 5825 5825 5825 5825 5824 5824 5825 5825 5826 5825 5825 5826 5827 5828 5829 5830 5832 5833 5835
5828 5829 5829 5829 5830 5831 5833 5834 5834 5835 5839 5842 5841 5840 5842 5843 5844 5844 5844 5844 5844 5846 5847 5848 5849 5848 5848 5849 5848 5848 5849 5850 5850 5850 5849 5848 5847 5847 5846 5845 5844 5843 5842 5841 5840 5839 5837 5836 5835 5834 5834 5834 5833 5833 5832 5832 5831 5831 5831 5830 5829 5829 5828 5827 5826 5826 5825 5825 5824 5824 5824 5824 5824 5824 5824 5825 5825 5825 5825 5826 5827 5828 5829 5829 5831 5833
5824 5825 5825 5825 5826 5827 5828 5829 5830 5831 5834 5837 5837 5837 5838 5839 5840 5840 5840 5841 5842 5842 5844 5845 5846 5846 5845 5845 5846 5846 5846 5847 5848 5848 5847 5846 5845 5845 5844 5843 5843 5842 5841 5840 5839 5838 5837 5836 5835 5834 5833 5833 5833 5832 5832 5831 5831 5830 5830 5829 5829 5829 5828 5827 5826 5825 5825 5824 5824 5824 5824 5823 5823 5824 5823 5823 5824 5825 5825 5826 5826 5827 5828 5828 5829 5831
5819 5820 5821 5821 5821 5822 5824 5824 5825 5826 5828 5831 5833 5833 5834 5835 5835 5835 5836 5837 5838 5839 5841 5842 5843 5843 5842 5842 5843 5844 5844 5844 5846 5846 5845 5843 5843 5843 5842 5841 5841 5840 5839 5839 5838 5837 5836 5835 5834 5833 5833 5833 5832 5831 5831 5830 5830 5830 5829 5829 5829 5828 5828 5827 5826 5826 5825 5824 5824 5824 5823 5823 5823 5824 5824 5824 5824 5824 5825 5825 5826 5827 5827 5828 5829 5830
5813 5815 5816 5816 5816 5818 5819 5820 5820 5821 5823 5826 5828 5828 5829 5829 5830 5830 5831 5832 5833 5836 5837 5839 5840 5840 5839 5839 5839 5840 5841 5842 5844 5843 5842 5841 5841 5841 5840 5840 5839 5839 5838 5837 5837 5836 5835 5834 5833 5833 5832 5832 5831 5831 5830 5830 5830 5829 5829 5828 5828 5828 5828 5828 5827 5826 5825 5825 5824 5823 5823 5823 5823 5823 5824 5824 5824 5824 5824 5825 5826 5826 5827 5828 5829 5830
5807 5808 5809 5810 5811 5813 5814 5815 5816 5817 5818 5820 5822 5823 5823 5823 5824 5824 5825 5826 5829 5831 5833 5834 5836 5836 5836 5835 5836 5837 5838 5839 5840 5840 5839 5839 5839 5839 5839 5838 5837 5837 5836 5836 5835 5835 5833 5833 5832 5832 5831 5831 5830 5830 5830 5829 5829 5829 5828 5827 5827 5827 5827 5827 5827 5826 5825 5825 5824 5824 5823 5823 5823 5823 5823 5824 5824 5824 5824 5824 5825 5826 5826 5827 5828 5829
5802 5803 5804 5805 5806 5807 5808 5809 5811 5811 5812 5814 5817 5817 5817 5818 5818 5818 5818 5821 5824 5826 5827 5829 5831 5832 5832 5832 5831 5832 5833 5835 5836 5835 5835 5836 5837 5836 5836 5836 5835 5835 5834 5834 5834 5833 5832 5831 5831 5830 5830 5829 5829 5829 5828 5828 5828 5828 5827 5827 5826 5826 5827 5827 5827 5826 5825 5825 5824 5824 5823 5823 5823 5822 5823 5823 5823 5824 5824 5824 5825 5825 5825 5826 5827 5828
5797 5797 5798 5799 5801 5802 5802 5804 5805 5805 5806 5808 5811 5812 5813 5813 5812 5811 5812 5815 5818 5820 5821 5824 5826 5827 5828 5828 5828 5828 5829 5831 5831 5831 5831 5833 5833 5833 5834 5833 5833 5832 5832 5831 5831 5831 5830 5829 5829 5828 5828 5828 5828 5827 5827 5827 5827 5827 5826 5826 5825 5825 5825 5826 5826 5825 5825 5825 5824 5824 5824 5823 5823 5823 5823 5823 5823 5823 5824 5824 5825 5825 5825 5825 5826 5827
5793 5793 5793 5794 5795 5796 5797 5798 5799 5799 5800 5803 5806 5807 5808 5808 5806 5806 5807 5809 5812 5814 5816 5818 5820 5822 5823 5824 5825 5825 5826 5828 5828 5828 5828 5829 5830 5830 5831 5830 5830 5830 5829 5829 5829 5829 5829 5828 5827 5827 5826 5826 5826 5826 5826 5826 5825 5825 5825 5825 5824 5824 5824 5824 5824 5824 5824 5824 5824 5824 5823 5823 5823 5823 5823 5823 5823 5823 5823 5824 5824 5824 5825 5825 5826 5827
5789 5789 5789 5789 5790 5791 5792 5792 5793 5794 5795 5798 5800 5801 5801 5801 5801 5802 5802 5804 5806 5808 5810 5812 5814 5816 5817 5818 5820 5821 5822 5824 5825 5825 5825 5826 5826 5827 5827 5827 5827 5827 5827 5827 5827 5827 5827 5826 5825 5825 5824 5824 5824 5824 5824 5824 5824 5824 5823 5823 5823 5823 5823 5823 5823 5823 5823 5823 5823 5823 5823 5823 5823 5823 5823 5823 5823 5823 5823 5823 5823 5824 5824 5825 5825 5826
5785 5785 5785 5785 5786 5787 5787 5787 5788 5789 5791 5792 5793 5794 5795 5796 5796 5797 5797 5799 5800 5802 5805 5807 5809 5811 5812 5813 5815 5816 5817 5819 5820 5820 5821 5823 5823 5824 5824 5824 5824 5824 5825 5825 5825 5824 5824 5824 5824 5823 5823 5822 5822 5822 5822 5822 5822 5822 5822 5822 5822 5822 5822 5822 5822 5822 5822 5822 5822 5823 5823 5822 5822 5822 5822 5822 5822 5822 5822 5822 5822 5823 5823 5824 5824 5825
5780 5781 5781 5781 5782 5782 5782 5782 5783 5784 5785 5786 5787 5789 5790 5791 5792 5792 5793 5795 5797 5798 5800 5802 5804 5806 5807 5808 5810 5811 5812 5814 5815 5816 5817 5819 5820 5820 5820 5820 5821 5821 5822 5822 5822 5822 5821 5821 5821 5821 5820 5820 5820 5820 5820 5820 5820 5820 5820 5820 5820 5820 5821 5821 5821 5821 5821 5821 5821 5821 5821 5821 5821 5821 5821 5821 5821 5821 5821 5821 5821 5822 5822 5823 5823 5824
5776 5776 5776 5777 5777 5777 5777 5777 5778 5779 5780 5781 5782 5783 5784 5785 5786 5787 5788 5790 5792 5793 5793 5795 5798 5800 5802 5804 5805 5807 5807 5809 5810 5810 5812 5814 5816 5817 5817 5817 5817 5817 5818 5819 5819 5819 5819 5818 5818 5818 5818 5817 5817 5817 5817 5817 5818 5818 5818 5818 5818 5818 5818 5819 5819 5819 5819 5819 5819 5819 5820 5820 5820 5820 5819 5819 5819 5819 5820 5820 5820 5820 5820 5821 5821 5822
5770 5771 5771 5771 5771 5772 5772 5772 5772 5774 5775 5776 5777 5778 5778 5779 5780 5781 5782 5785 5787 5787 5787 5788 5791 5794 5796 5798 5800 5802 5803 5804 5805 5806 5807 5809 5811 5812 5813 5813 5813 5813 5814 5815 5815 5816 5816 5815 5815 5814 5814 5814 5814 5814 5814 5814 5815 5815 5815 5815 5815 5815 5816 5816 5816 5816 5817 5818 5818 5818 5818 5818 5818 5818 5818 5818 5818 5818 5818 5818 5818 5819 5819 5819 5819 5820
5764 5764 5764 5764 5765 5766 5766 5765 5765 5768 5770 5770 5771 5772 5772 5773 5774 5775 5776 5778 5780 5781 5782 5783 5785 5788 5791 5792 5793 5795 5797 5799 5801 5802 5803 5805 5806 5807 5808 5808 5808 5809 5810 5811 5811 5812 5812 5812 5811 5811 5811 5811 5811 5811 5811 5811 5811 5812 5812 5812 5812 5812 5813 5813 5813 5814 5814 5815 5816 5816 5816 5816 5817 5817 5817 5817 5817 5816 5816 5816 5816 5817 5817 5817 5817 5818
5758 5757 5757 5757 5757 5759 5760 5759 5758 5760 5763 5764 5764 5765 5766 5767 5768 5769 5770 5771 5773 5774 5777 5779 5780 5782 5784 5785 5787 5789 5791 5793 5795 5796 5798 5800 5801 5802 5803 5803 5804 5805 5806 5806 5807 5808 5808 5808 5808 5807 5807 5807 5808 5808 5808 5808 5808 5808 5809 5809 5809 5809 5809 5810 5810 5811 5811 5812 5813 5814 5814 5815 5815 5815 5815 5815 5815 5815 5815 5815 5815 5815 5815 5815 5815 5816
5751 5751 5750 5749 5750 5751 5753 5753 5751 5752 5756 5759 5759 5759 5760 5760 5761 5763 5764 5765 5766 5768 5770 5773 5776 5777 5778 5779 5781 5783 5785 5787 5789 5790 5793 5795 5796 5797 5798 5798 5799 5800 5801 5802 5803 5804 5804 5804 5803 5803 5803 5803 5803 5803 5804 5804 5805 5805 5805 5805 5806 5806 5806 5806 5807 5807 5808 5809 5810 5811 5812 5812 5813 5813 5813 5813 5813 5813 5813 5813 5813 5813 5813 5813 5813 5813